Location: A�t �Alizem
(31.2076°N, 8.7872°W)
Time: 14:40:35
(UTC+00:00)

deb Explorer IX - Pass Details

Date: 27 June 2021
Orbit: 542 x 1234 km, 38.9° (Epoch: 23 July)

Event Time Altitude Azimuth Distance (km) Brightness Sun altitude
Rises 20:34:02 0° 218° (SW) 2,692 ? -10.1°
Reaches altitude 10° 20:36:26 10° 207° (SSW) 1,788 ? -10.5°
Maximum altitude 20:39:59 30° 145° (SE) 981 ? -11.1°
Drops below altitude 10° 20:43:42 10° 82° (E) 1,870 ? -11.8°
Enters shadow 20:44:35 - 78° (ENE) 2,194 ? -11.9°
